EW1858 Weather Reports


time (UTC)temp
C
wind
direction
speed
KPH
gust
KPH
rain 1hr
cm
rain 24hr
cm
rain mn
cm
humidity
%
barometer
mb
20260503211532 15 60 4.8 14.5 0.00 0.00 0.00 36 1012.4
20260503210032 15 98 6.4 22.5 0.00 0.00 0.00 36 1012.4
20260503204503 15 120 8.0 19.3 0.00 0.00 0.00 35 1012.4
20260503203001 15 206 9.7 32.2 0.00 0.00 0.00 36 1012.5
20260503201529 16 123 4.8 24.1 0.00 0.00 0.00 36 1012.8
20260503200025 15 217 6.4 19.3 0.00 0.00 0.00 35 1013.2
20260503194519 15 152 9.7 19.3 0.00 0.00 0.00 35 1013.5
20260503193015 15 297 9.7 22.5 0.00 0.00 0.00 36 1013.5
20260503191519 15 206 4.8 17.7 0.00 0.00 0.00 37 1013.9
20260503190010 15 138 4.8 16.1 0.00 0.00 0.00 39 1014.0
20260503184505 15 120 9.7 19.3 0.00 0.00 0.00 38 1014.3
20260503183004 14 249 4.8 25.7 0.00 0.00 0.00 38 1014.2
20260503181503 14 125 9.7 22.5 0.00 0.00 0.00 39 1014.4
20260503180003 14 101 9.7 19.3 0.00 0.00 0.00 38 1014.4
20260503174529 14 121 4.8 16.1 0.00 0.00 0.00 39 1014.4
20260503173027 13 145 4.8 12.9 0.00 0.00 0.00 40 1014.6
20260503171555 13 115 4.8 12.9 0.00 0.00 0.00 40 1014.8
20260503081534 2 164 4.8 12.9 0.00 0.00 0.00 72 1014.8
20260503071526 2 30 3.2 4.8 0.00 0.00 0.00 72 1014.3
20260503054553 3 131 1.6 6.4 0.00 0.00 0.00 73 1014.4
20260503053046 3 195 1.6 11.3 0.00 0.00 0.00 73 1014.3
20260503051543 3 137 0.0 4.8 0.00 0.00 0.00 73 1014.2
20260503050042 3 121 1.6 6.4 0.00 0.00 0.00 73 1014.4
20260503044542 3 255 0.0 0.0 0.00 0.00 0.00 75 1014.6
20260503043035 4 273 0.0 3.2 0.00 0.00 0.00 70 1014.4
20260503041532 5 286 3.2 8.0 0.00 0.00 0.00 71 1014.5
20260503040035 5 155 1.6 6.4 0.00 0.00 0.00 71 1014.6
20260503034535 5 159 1.6 4.8 0.00 0.00 0.00 71 1014.4
20260503033123 5 222 3.2 8.0 0.00 0.00 0.00 70 1014.4
20260503031558 5 191 0.0 8.0 0.00 0.00 0.00 72 1014.7
20260503030023 5 148 1.6 6.4 0.00 0.00 0.00 71 1014.8
20260503024520 5 171 0.0 9.7 0.00 0.00 0.00 72 1014.9
20260503023115 5 136 0.0 6.4 0.00 0.00 0.00 72 1014.9
20260503021551 6 319 3.2 22.5 0.00 0.00 0.00 71 1014.9
20260503020047 6 150 0.0 3.2 0.00 0.00 0.00 71 1014.7
20260503014543 6 238 3.2 9.7 0.00 0.00 0.00 70 1014.7
20260503013040 6 200 1.6 8.0 0.00 0.00 0.00 70 1014.7
20260503011541 6 149 3.2 6.4 0.00 0.00 0.00 68 1014.5
20260503010035 6 151 1.6 11.3 0.00 0.00 0.00 68 1014.3
20260503004523 6 252 4.8 11.3 0.00 0.00 0.00 67 1014.2
20260503003020 6 152 1.6 9.7 0.00 0.00 0.00 69 1014.1
20260503001519 6 120 3.2 14.5 0.00 0.00 0.00 68 1014.0
20260503000017 7 186 0.0 4.8 0.00 0.00 0.00 66 1013.9
20260502234516 7 254 3.2 11.3 0.00 0.00 0.00 65 1013.7
20260502231516 7 224 4.8 22.5 0.00 0.00 0.00 64 1013.6
20260502230013 8 149 1.6 22.5 0.00 0.00 0.00 65 1013.4
20260502224510 8 236 4.8 8.0 0.00 0.00 0.00 63 1013.3
20260502221601 9 233 1.6 9.7 0.00 0.00 0.00 60 1013.1
20260502220049 9 113 1.6 12.9 0.00 0.00 0.00 59 1012.9
20260502214554 10 203 4.8 14.5 0.00 0.00 0.00 57 1012.8